Wind From: 10-12-2017 19:04 Until: 11-12-2017 16:00 warning for: Wind Level: Orange info button

Power and phone distribution networks may be disrupted for relatively long periods., Roofs and chimneys can be damaged. , Tree branches may break. , Vehicles can be deported. , Traffic may be disrupted, particularly on secondary roads in forest areas. Limit your trips. , Limit your speed in highway driving, especially if you drive a vehicle or hitch sensitive to wind. , Do not go for walks in forests or along the coast., In town, be vigilant against possible falling objects., Do not work on roofs and do not touch any electrical line fallen on the ground., Store or secure sensitive objects to wind or likely to be damaged., Always install power generators outside buildings. 


Meteo18 Weather Cam more information Meteo18 Weather Cam


Thunder radar more information blitzortung!


Rain radar more information rain snow radar


Visit our other weather sites:

Template documentation
and downloads

And another site



Weather Underground History page Text

Daily Summary for March 16, 2016 Units:  Metric    English   Both
« Previous Day
Next Day »
Daily Weekly Monthly Yearly Custom
  High: Low: Average:
Temperature: 7.4 °C 2.2 °C 4.4 °C
Dew Point: 3.7 °C -1.1 °C 0.6 °C
Humidity: 94 % 61 % 77 %
Wind Speed: 20.9 km/h 0.0 km/h 5.2 km/h
Wind Gust: 32.2 km/h - -
Wind:- - ENE
Pressure: 1020.9 hPa 1017.5 hPa -
Precipitation: 1.0 mm    
Historical Graphs
 
 
Tabular Data for March 16, 2016
Time Temperature Dew Point Pressure Wind Wind Speed Wind Gust Humidity Rainfall Rate (Hourly)
00:02 6.6 °C 3.6 °C 1017.8 hPa ENE 9.7 km/h 20.9 km/h 81 % 0.0 mm
00:07 6.6 °C 3.6 °C 1017.8 hPa NE 3.2 km/h 20.9 km/h 81 % 0.0 mm
00:12 6.5 °C 3.6 °C 1017.8 hPa NNE 3.2 km/h 16.1 km/h 82 % 0.0 mm
00:17 6.5 °C 3.6 °C 1017.8 hPa NNE 11.3 km/h 16.1 km/h 82 % 0.0 mm
00:22 6.5 °C 3.6 °C 1017.8 hPa NNE 4.8 km/h 16.1 km/h 82 % 0.0 mm
00:27 6.4 °C 3.6 °C 1017.8 hPa NE 1.6 km/h 22.5 km/h 82 % 0.0 mm
00:32 6.4 °C 3.7 °C 1017.8 hPa SSE 1.6 km/h 22.5 km/h 83 % 0.0 mm
00:37 6.4 °C 3.7 °C 1017.8 hPa NE 3.2 km/h 22.5 km/h 83 % 0.0 mm
00:47 6.3 °C 3.6 °C 1017.8 hPa ENE 1.6 km/h 14.5 km/h 83 % 0.0 mm
00:52 6.3 °C 3.6 °C 1017.8 hPa NE 9.7 km/h 14.5 km/h 83 % 0.0 mm
00:57 6.2 °C 3.5 °C 1017.8 hPa NNE 8.0 km/h 14.5 km/h 83 % 0.0 mm
01:02 6.1 °C 3.4 °C 1017.8 hPa NNE 11.3 km/h 20.9 km/h 83 % 0.0 mm
01:07 6.1 °C 3.4 °C 1017.8 hPa North 3.2 km/h 20.9 km/h 83 % 0.0 mm
01:12 5.9 °C 3.2 °C 1017.8 hPa NE 3.2 km/h 20.9 km/h 83 % 0.0 mm
01:17 5.9 °C 3.1 °C 1017.5 hPa North 4.8 km/h 19.3 km/h 82 % 0.0 mm
01:22 5.8 °C 3.0 °C 1017.8 hPa WNW 6.4 km/h 19.3 km/h 82 % 0.0 mm
01:27 5.7 °C 2.7 °C 1017.8 hPa North 9.7 km/h 19.3 km/h 81 % 0.0 mm
01:32 5.6 °C 2.6 °C 1017.8 hPa NE 1.6 km/h 19.3 km/h 81 % 0.0 mm
01:37 5.5 °C 2.7 °C 1017.8 hPa NE 1.6 km/h 19.3 km/h 82 % 0.0 mm
01:42 5.4 °C 2.6 °C 1017.8 hPa NE 4.8 km/h 19.3 km/h 82 % 0.0 mm
01:47 5.3 °C 2.3 °C 1017.8 hPa ENE 3.2 km/h 11.3 km/h 81 % 0.0 mm
01:52 5.3 °C 2.1 °C 1017.8 hPa ENE 4.8 km/h 11.3 km/h 80 % 0.0 mm
01:57 5.2 °C 1.7 °C 1017.8 hPa NE 6.4 km/h 22.5 km/h 78 % 0.0 mm
02:02 5.1 °C 1.6 °C 1017.8 hPa NNE 6.4 km/h 29.0 km/h 78 % 0.0 mm
02:07 5.0 °C 1.3 °C 1017.8 hPa NE 4.8 km/h 29.0 km/h 77 % 0.0 mm
02:12 4.9 °C 1.2 °C 1017.8 hPa ENE 3.2 km/h 29.0 km/h 77 % 0.0 mm
02:17 4.9 °C 1.2 °C 1017.8 hPa ENE 4.8 km/h 22.5 km/h 77 % 0.0 mm
02:22 4.8 °C 1.1 °C 1017.8 hPa NE 6.4 km/h 20.9 km/h 77 % 0.0 mm
02:27 4.8 °C 0.9 °C 1017.8 hPa ENE 11.3 km/h 20.9 km/h 76 % 0.0 mm
02:32 4.8 °C 0.7 °C 1017.8 hPa NE 4.8 km/h 19.3 km/h 75 % 0.0 mm
02:37 4.7 °C 0.8 °C 1017.8 hPa ENE 3.2 km/h 19.3 km/h 76 % 0.0 mm
02:42 4.7 °C 0.8 °C 1017.8 hPa ENE 4.8 km/h 19.3 km/h 76 % 0.0 mm
02:47 4.6 °C 0.7 °C 1017.8 hPa East 1.6 km/h 16.1 km/h 76 % 0.0 mm
02:52 4.6 °C 0.9 °C 1017.8 hPa NE 8.0 km/h 16.1 km/h 77 % 0.0 mm
02:57 4.4 °C 0.7 °C 1017.8 hPa NE 6.4 km/h 14.5 km/h 77 % 0.0 mm
03:02 4.2 °C 0.7 °C 1017.8 hPa SE 6.4 km/h 12.9 km/h 78 % 0.0 mm
03:07 3.8 °C 0.5 °C 1017.8 hPa SE 3.2 km/h 16.1 km/h 79 % 0.0 mm
03:12 3.6 °C 0.5 °C 1017.8 hPa ENE 3.2 km/h 16.1 km/h 80 % 0.0 mm
03:17 3.4 °C 0.3 °C 1017.5 hPa North 14.5 km/h 16.1 km/h 80 % 0.0 mm
03:22 3.3 °C 0.2 °C 1017.5 hPa East 1.6 km/h 29.0 km/h 80 % 0.0 mm
03:32 3.1 °C 0.2 °C 1017.5 hPa NE 4.8 km/h 29.0 km/h 81 % 0.0 mm
03:37 3.0 °C 0.1 °C 1017.5 hPa NE 6.4 km/h 19.3 km/h 81 % 0.0 mm
03:42 2.9 °C 0.1 °C 1017.5 hPa ESE 6.4 km/h 19.3 km/h 82 % 0.0 mm
03:47 2.9 °C 0.1 °C 1017.8 hPa NE 8.0 km/h 17.7 km/h 82 % 0.0 mm
03:57 3.0 °C 0.2 °C 1017.8 hPa NE 19.3 km/h 19.3 km/h 82 % 0.0 mm
04:02 3.1 °C 0.3 °C 1017.8 hPa NE 1.6 km/h 22.5 km/h 82 % 0.0 mm
04:07 3.1 °C 0.2 °C 1017.8 hPa NNE 11.3 km/h 22.5 km/h 81 % 0.0 mm
04:12 3.1 °C 0.2 °C 1017.8 hPa NNE 9.7 km/h 22.5 km/h 81 % 0.0 mm
04:17 3.1 °C 0.3 °C 1017.8 hPa North 4.8 km/h 20.9 km/h 82 % 0.0 mm
04:22 3.1 °C 0.3 °C 1017.8 hPa NNE 4.8 km/h 20.9 km/h 82 % 0.0 mm
04:32 2.9 °C 0.1 °C 1017.8 hPa NE 6.4 km/h 20.9 km/h 82 % 0.0 mm
04:37 3.0 °C 0.1 °C 1017.8 hPa NE 4.8 km/h 24.1 km/h 81 % 0.0 mm
04:42 2.9 °C 0.1 °C 1017.8 hPa Calm   24.1 km/h 82 % 0.0 mm
04:47 3.0 °C 0.1 °C 1017.8 hPa ENE 4.8 km/h 24.1 km/h 81 % 0.0 mm
04:52 3.0 °C 0.1 °C 1017.8 hPa ENE 6.4 km/h 24.1 km/h 81 % 0.0 mm
04:57 3.0 °C 0.1 °C 1017.8 hPa ENE 9.7 km/h 16.1 km/h 81 % 0.0 mm
05:02 3.0 °C 0.1 °C 1017.8 hPa NE 12.9 km/h 17.7 km/h 81 % 0.0 mm
05:12 3.0 °C 0.1 °C 1017.8 hPa NE 4.8 km/h 19.3 km/h 81 % 0.0 mm
05:17 3.0 °C 0.1 °C 1017.8 hPa ENE 3.2 km/h 19.3 km/h 81 % 0.0 mm
05:22 2.9 °C 0.1 °C 1017.8 hPa ENE 14.5 km/h 14.5 km/h 82 % 0.0 mm
05:27 2.9 °C 0.1 °C 1017.8 hPa SE 4.8 km/h 14.5 km/h 82 % 0.0 mm
05:32 2.8 °C 0.0 °C 1017.8 hPa ENE 3.2 km/h 14.5 km/h 82 % 0.0 mm
05:37 2.8 °C 0.2 °C 1017.8 hPa NNE 4.8 km/h 16.1 km/h 83 % 0.0 mm
05:42 2.8 °C 0.2 °C 1017.8 hPa East 3.2 km/h 16.1 km/h 83 % 0.0 mm
05:47 2.7 °C 0.1 °C 1017.8 hPa NNE 6.4 km/h 16.1 km/h 83 % 0.0 mm
05:52 2.6 °C 0.0 °C 1017.8 hPa ENE 3.2 km/h 19.3 km/h 83 % 0.0 mm
05:57 2.6 °C 0.0 °C 1017.8 hPa East 1.6 km/h 19.3 km/h 83 % 0.0 mm
06:02 2.4 °C 0.0 °C 1017.8 hPa East 1.6 km/h 19.3 km/h 84 % 0.0 mm
06:12 2.5 °C -0.1 °C 1017.8 hPa WSW 4.8 km/h 19.3 km/h 83 % 0.0 mm
06:17 2.5 °C 0.1 °C 1017.8 hPa Calm   19.3 km/h 84 % 0.0 mm
06:22 2.6 °C 0.0 °C 1017.8 hPa ESE 3.2 km/h 19.3 km/h 83 % 0.0 mm
06:27 2.6 °C 0.2 °C 1017.8 hPa ESE 1.6 km/h 14.5 km/h 84 % 0.0 mm
06:32 2.6 °C 0.2 °C 1017.8 hPa East 1.6 km/h 14.5 km/h 84 % 0.0 mm
06:37 2.6 °C 0.2 °C 1017.8 hPa ENE 1.6 km/h 16.1 km/h 84 % 0.0 mm
06:42 2.7 °C 0.1 °C 1017.8 hPa ENE 3.2 km/h 16.1 km/h 83 % 0.0 mm
06:47 2.8 °C 0.4 °C 1017.8 hPa ESE 11.3 km/h 16.1 km/h 84 % 0.0 mm
06:57 2.9 °C 0.5 °C 1017.8 hPa ENE 9.7 km/h 17.7 km/h 84 % 0.0 mm
07:02 2.9 °C 0.5 °C 1017.8 hPa ENE 1.6 km/h 17.7 km/h 84 % 0.0 mm
07:12 2.9 °C 0.5 °C 1017.8 hPa SE 4.8 km/h 14.5 km/h 84 % 0.0 mm
07:17 3.0 °C 0.6 °C 1017.8 hPa East 3.2 km/h 14.5 km/h 84 % 0.0 mm
07:22 3.1 °C 0.8 °C 1017.8 hPa East 3.2 km/h 14.5 km/h 85 % 0.0 mm
07:32 3.1 °C 0.7 °C 1017.8 hPa NE 4.8 km/h 16.1 km/h 84 % 0.0 mm
07:37 3.2 °C 0.8 °C 1017.8 hPa NE 8.0 km/h 20.9 km/h 84 % 0.0 mm
07:42 3.2 °C 0.8 °C 1017.8 hPa ESE 1.6 km/h 20.9 km/h 84 % 0.0 mm
07:47 3.2 °C 0.6 °C 1017.8 hPa SE 3.2 km/h 20.9 km/h 83 % 0.0 mm
07:52 3.2 °C 0.6 °C 1017.8 hPa East 3.2 km/h 11.3 km/h 83 % 0.0 mm
07:57 3.3 °C 0.7 °C 1017.8 hPa SE 1.6 km/h 11.3 km/h 83 % 0.0 mm
08:02 3.3 °C 0.5 °C 1018.2 hPa ESE 3.2 km/h 12.9 km/h 82 % 0.0 mm
08:07 3.4 °C 0.6 °C 1018.2 hPa ENE 1.6 km/h 12.9 km/h 82 % 0.0 mm
08:12 3.4 °C 0.6 °C 1018.2 hPa NE 4.8 km/h 12.9 km/h 82 % 0.0 mm
08:17 3.5 °C 0.7 °C 1018.2 hPa ENE 3.2 km/h 17.7 km/h 82 % 0.0 mm
08:22 3.6 °C 0.6 °C 1018.2 hPa NNE 1.6 km/h 17.7 km/h 81 % 0.0 mm
08:27 3.8 °C 0.7 °C 1018.2 hPa East 3.2 km/h 12.9 km/h 80 % 0.0 mm
08:32 3.8 °C 0.3 °C 1018.2 hPa NE 3.2 km/h 16.1 km/h 78 % 0.0 mm
08:37 3.8 °C 0.1 °C 1018.2 hPa NE 3.2 km/h 16.1 km/h 77 % 0.0 mm
08:42 3.7 °C 0.0 °C 1018.2 hPa NNE 12.9 km/h 17.7 km/h 77 % 0.0 mm
08:47 3.8 °C 0.1 °C 1017.8 hPa East 1.6 km/h 19.3 km/h 77 % 0.0 mm
08:52 4.0 °C 0.3 °C 1017.8 hPa ENE 12.9 km/h 22.5 km/h 77 % 0.0 mm
08:57 4.1 °C 0.3 °C 1018.2 hPa NNE 6.4 km/h 22.5 km/h 76 % 0.0 mm
09:02 4.2 °C 0.3 °C 1018.2 hPa North 6.4 km/h 24.1 km/h 76 % 0.0 mm
09:12 4.3 °C 0.3 °C 1018.2 hPa SSE 4.8 km/h 24.1 km/h 75 % 0.0 mm
09:17 4.3 °C 0.4 °C 1018.2 hPa North 9.7 km/h 19.3 km/h 76 % 0.0 mm
09:22 4.5 °C 0.6 °C 1018.2 hPa East 11.3 km/h 19.3 km/h 76 % 0.0 mm
09:27 4.9 °C 1.0 °C 1018.2 hPa East 12.9 km/h 19.3 km/h 76 % 0.0 mm
09:32 4.8 °C 0.7 °C 1018.2 hPa NNE 19.3 km/h 24.1 km/h 75 % 0.0 mm
09:42 4.9 °C 1.0 °C 1018.2 hPa ENE 12.9 km/h 25.7 km/h 76 % 0.0 mm
09:52 4.6 °C 0.6 °C 1018.2 hPa NNW 4.8 km/h 32.2 km/h 75 % 0.0 mm
09:57 4.6 °C 0.7 °C 1018.5 hPa NE 11.3 km/h 27.4 km/h 76 % 0.0 mm
10:02 4.8 °C 1.1 °C 1018.5 hPa NNE 6.4 km/h 24.1 km/h 77 % 0.0 mm
10:07 4.8 °C 0.7 °C 1018.5 hPa NE 19.3 km/h 22.5 km/h 75 % 0.0 mm
10:12 4.7 °C 0.8 °C 1018.5 hPa NE 9.7 km/h 22.5 km/h 76 % 0.0 mm
10:22 4.3 °C 0.6 °C 1018.8 hPa NNE 11.3 km/h 22.5 km/h 77 % 0.0 mm
10:27 4.3 °C 0.6 °C 1018.8 hPa NNE 3.2 km/h 22.5 km/h 77 % 0.0 mm
10:32 4.2 °C 0.3 °C 1018.8 hPa East 8.0 km/h 22.5 km/h 76 % 0.0 mm
10:37 4.1 °C 0.3 °C 1018.8 hPa ENE 4.8 km/h 25.7 km/h 76 % 0.0 mm
10:42 4.1 °C 0.3 °C 1018.8 hPa NE 16.1 km/h 25.7 km/h 76 % 0.0 mm
10:47 4.1 °C 0.3 °C 1018.8 hPa NE 4.8 km/h 25.7 km/h 76 % 0.0 mm
10:52 4.1 °C 0.3 °C 1018.5 hPa NE 9.7 km/h 22.5 km/h 76 % 0.0 mm
10:57 4.1 °C 0.3 °C 1018.8 hPa NE 6.4 km/h 22.5 km/h 76 % 0.0 mm
11:02 4.1 °C 0.1 °C 1018.5 hPa NE 6.4 km/h 19.3 km/h 75 % 0.0 mm
11:12 4.2 °C 0.0 °C 1018.5 hPa NE 4.8 km/h 22.5 km/h 74 % 0.0 mm
11:17 4.3 °C 0.3 °C 1018.5 hPa NNE 8.0 km/h 20.9 km/h 75 % 0.0 mm
11:22 4.3 °C 0.1 °C 1018.5 hPa NE 9.7 km/h 19.3 km/h 74 % 0.0 mm
11:27 4.3 °C -0.1 °C 1018.5 hPa NE 6.4 km/h 20.9 km/h 73 % 0.0 mm
11:32 4.4 °C 0.0 °C 1018.5 hPa NE 4.8 km/h 20.9 km/h 73 % 0.0 mm
11:37 4.5 °C 0.1 °C 1018.5 hPa East 4.8 km/h 25.7 km/h 73 % 0.0 mm
11:42 4.5 °C 0.1 °C 1018.5 hPa NE 3.2 km/h 25.7 km/h 73 % 0.0 mm
11:47 4.7 °C 0.3 °C 1018.5 hPa NNE 9.7 km/h 19.3 km/h 73 % 0.0 mm
11:52 4.9 °C 0.5 °C 1018.5 hPa North 6.4 km/h 19.3 km/h 73 % 0.0 mm
11:57 5.2 °C 0.4 °C 1018.5 hPa NE 11.3 km/h 19.3 km/h 71 % 0.0 mm
12:02 5.2 °C 0.2 °C 1018.2 hPa NNE 8.0 km/h 20.9 km/h 70 % 0.0 mm
12:07 5.1 °C -0.1 °C 1018.2 hPa NE 14.5 km/h 27.4 km/h 69 % 0.0 mm
12:12 5.2 °C 0.2 °C 1018.2 hPa NNE 9.7 km/h 27.4 km/h 70 % 0.0 mm
12:22 5.4 °C 0.4 °C 1018.2 hPa NE 6.4 km/h 22.5 km/h 70 % 0.0 mm
12:27 5.6 °C 1.0 °C 1018.2 hPa East 6.4 km/h 19.3 km/h 72 % 0.0 mm
12:32 5.7 °C 1.0 °C 1018.2 hPa NNE 11.3 km/h 19.3 km/h 72 % 0.0 mm
12:37 5.7 °C 0.7 °C 1018.2 hPa NNE 4.8 km/h 17.7 km/h 70 % 0.0 mm
12:42 5.6 °C 0.6 °C 1018.2 hPa SE 6.4 km/h 22.5 km/h 70 % 0.0 mm
12:47 5.5 °C -0.1 °C 1018.2 hPa NNE 8.0 km/h 22.5 km/h 67 % 0.0 mm
12:52 5.5 °C 0.5 °C 1018.2 hPa NE 4.8 km/h 22.5 km/h 70 % 0.0 mm
12:57 5.5 °C 0.3 °C 1018.2 hPa NE 6.4 km/h 22.5 km/h 69 % 0.0 mm
13:02 5.4 °C 0.0 °C 1018.2 hPa NE 3.2 km/h 20.9 km/h 68 % 0.0 mm
13:07 5.6 °C 0.6 °C 1018.2 hPa NE 6.4 km/h 22.5 km/h 70 % 0.0 mm
13:12 5.6 °C 0.2 °C 1018.2 hPa ENE 6.4 km/h 22.5 km/h 68 % 0.0 mm
13:17 5.5 °C 0.3 °C 1018.2 hPa NE 12.9 km/h 24.1 km/h 69 % 0.0 mm
13:22 5.4 °C 0.2 °C 1018.2 hPa NE 6.4 km/h 24.1 km/h 69 % 0.0 mm
13:27 5.3 °C 0.1 °C 1018.2 hPa ENE 3.2 km/h 20.9 km/h 69 % 0.0 mm
13:32 5.4 °C 0.4 °C 1018.2 hPa NE 20.9 km/h 20.9 km/h 70 % 0.0 mm
13:37 5.5 °C 0.1 °C 1018.2 hPa ENE 16.1 km/h 25.7 km/h 68 % 0.0 mm
13:42 5.5 °C 0.3 °C 1017.8 hPa NNE 17.7 km/h 25.7 km/h 69 % 0.0 mm
13:47 5.7 °C 0.3 °C 1017.8 hPa NE 8.0 km/h 25.7 km/h 68 % 0.0 mm
13:52 6.5 °C 0.8 °C 1017.8 hPa ESE 4.8 km/h 24.1 km/h 67 % 0.0 mm
13:57 7.3 °C 1.4 °C 1017.8 hPa NE 16.1 km/h 20.9 km/h 66 % 0.0 mm
14:02 7.4 °C 1.0 °C 1017.8 hPa ENE 12.9 km/h 27.4 km/h 64 % 0.0 mm
14:12 6.7 °C 0.4 °C 1017.8 hPa East 1.6 km/h 27.4 km/h 64 % 0.0 mm
14:17 6.6 °C 0.7 °C 1017.8 hPa ENE 11.3 km/h 27.4 km/h 66 % 0.0 mm
14:22 6.6 °C -0.4 °C 1017.5 hPa NNE 6.4 km/h 27.4 km/h 61 % 0.0 mm
14:27 6.4 °C 0.1 °C 1017.5 hPa NE 6.4 km/h 22.5 km/h 64 % 0.0 mm
14:32 6.4 °C -0.1 °C 1017.8 hPa ENE 8.0 km/h 17.7 km/h 63 % 0.0 mm
14:37 6.4 °C 0.3 °C 1017.8 hPa NE 6.4 km/h 17.7 km/h 65 % 0.0 mm
14:42 6.4 °C -0.1 °C 1017.8 hPa ENE 3.2 km/h 17.7 km/h 63 % 0.0 mm
14:47 6.2 °C -0.1 °C 1017.8 hPa NE 4.8 km/h 20.9 km/h 64 % 0.0 mm
14:52 6.2 °C -0.1 °C 1017.8 hPa East 4.8 km/h 20.9 km/h 64 % 0.0 mm
14:57 6.2 °C 0.1 °C 1017.8 hPa ESE 8.0 km/h 20.9 km/h 65 % 0.0 mm
15:02 6.2 °C -0.3 °C 1017.8 hPa NNE 11.3 km/h 12.9 km/h 63 % 0.0 mm
15:07 6.2 °C -0.1 °C 1017.8 hPa NNE 6.4 km/h 12.9 km/h 64 % 0.0 mm
15:17 6.4 °C -0.1 °C 1017.8 hPa NNE 4.8 km/h 11.3 km/h 63 % 0.0 mm
15:22 6.2 °C 0.1 °C 1017.8 hPa ENE 3.2 km/h 19.3 km/h 65 % 0.0 mm
15:27 6.1 °C -0.4 °C 1017.8 hPa NE 17.7 km/h 19.3 km/h 63 % 0.0 mm
15:32 5.9 °C -0.4 °C 1017.8 hPa NE 8.0 km/h 24.1 km/h 64 % 0.0 mm
15:37 5.8 °C -0.5 °C 1017.8 hPa ENE 4.8 km/h 24.1 km/h 64 % 0.0 mm
15:42 5.8 °C -0.7 °C 1017.8 hPa East 4.8 km/h 24.1 km/h 63 % 0.0 mm
15:47 5.8 °C -0.3 °C 1017.8 hPa NE 11.3 km/h 24.1 km/h 65 % 0.0 mm
15:52 5.7 °C -0.4 °C 1017.8 hPa North 4.8 km/h 17.7 km/h 65 % 0.0 mm
15:57 5.7 °C -0.2 °C 1017.8 hPa North 9.7 km/h 17.7 km/h 66 % 0.0 mm
16:02 5.6 °C -0.3 °C 1017.8 hPa ESE 3.2 km/h 14.5 km/h 66 % 0.0 mm
16:07 5.6 °C -0.5 °C 1017.8 hPa SW 1.6 km/h 17.7 km/h 65 % 0.0 mm
16:12 5.7 °C 0.1 °C 1017.8 hPa NE 8.0 km/h 17.7 km/h 67 % 0.0 mm
16:17 5.8 °C -0.1 °C 1017.8 hPa NNE 6.4 km/h 19.3 km/h 66 % 0.0 mm
16:22 5.8 °C -0.7 °C 1017.8 hPa NE 3.2 km/h 19.3 km/h 63 % 0.0 mm
16:27 5.8 °C -0.5 °C 1017.8 hPa NE 8.0 km/h 19.3 km/h 64 % 0.0 mm
16:32 5.8 °C -0.5 °C 1017.8 hPa NNW 4.8 km/h 19.3 km/h 64 % 0.0 mm
16:37 5.9 °C -0.4 °C 1017.8 hPa NE 6.4 km/h 19.3 km/h 64 % 0.0 mm
16:42 5.9 °C -0.4 °C 1017.8 hPa Calm   12.9 km/h 64 % 0.0 mm
16:47 6.0 °C -0.1 °C 1017.8 hPa Calm   12.9 km/h 65 % 0.0 mm
16:52 5.9 °C -0.4 °C 1017.8 hPa NNE 12.9 km/h 12.9 km/h 64 % 0.0 mm
16:57 5.8 °C -0.5 °C 1017.8 hPa ENE 4.8 km/h 16.1 km/h 64 % 0.0 mm
17:07 5.7 °C -0.4 °C 1017.8 hPa NNE 6.4 km/h 17.7 km/h 65 % 0.0 mm
17:12 5.6 °C -0.5 °C 1018.2 hPa ESE 3.2 km/h 17.7 km/h 65 % 0.0 mm
17:17 5.5 °C -0.6 °C 1018.2 hPa NNE 4.8 km/h 16.1 km/h 65 % 0.0 mm
17:22 5.4 °C -0.7 °C 1018.2 hPa Calm   16.1 km/h 65 % 0.0 mm
17:27 5.4 °C -0.7 °C 1018.2 hPa NE 4.8 km/h 14.5 km/h 65 % 0.0 mm
17:37 5.2 °C -1.1 °C 1018.2 hPa NNE 3.2 km/h 16.1 km/h 64 % 0.0 mm
17:42 5.2 °C -0.6 °C 1018.2 hPa NE 8.0 km/h 19.3 km/h 66 % 0.0 mm
17:47 5.2 °C -0.6 °C 1018.2 hPa NW 1.6 km/h 19.3 km/h 66 % 0.0 mm
17:52 5.1 °C -0.7 °C 1018.2 hPa NNE 1.6 km/h 19.3 km/h 66 % 0.0 mm
17:57 5.1 °C -0.7 °C 1018.2 hPa NNE 6.4 km/h 17.7 km/h 66 % 0.0 mm
18:02 5.1 °C -0.3 °C 1018.2 hPa NNE 4.8 km/h 11.3 km/h 68 % 0.0 mm
18:07 5.0 °C -0.6 °C 1018.2 hPa North 8.0 km/h 16.1 km/h 67 % 0.0 mm
18:12 4.9 °C -0.9 °C 1018.5 hPa NE 1.6 km/h 16.1 km/h 66 % 0.0 mm
18:17 4.9 °C -0.5 °C 1018.5 hPa SE 1.6 km/h 16.1 km/h 68 % 0.0 mm
18:22 4.8 °C -0.8 °C 1018.5 hPa NE 3.2 km/h 16.1 km/h 67 % 0.0 mm
18:27 4.8 °C -0.6 °C 1018.5 hPa NE 3.2 km/h 17.7 km/h 68 % 0.0 mm
18:32 4.8 °C -0.8 °C 1018.5 hPa ESE 1.6 km/h 17.7 km/h 67 % 0.0 mm
18:42 4.8 °C -0.6 °C 1018.5 hPa SE 1.6 km/h 17.7 km/h 68 % 0.0 mm
18:47 4.8 °C -0.8 °C 1018.5 hPa ESE 8.0 km/h 14.5 km/h 67 % 0.0 mm
18:52 4.8 °C -0.8 °C 1018.5 hPa ENE 3.2 km/h 17.7 km/h 67 % 0.0 mm
18:57 4.8 °C -0.6 °C 1018.8 hPa NNE 6.4 km/h 17.7 km/h 68 % 0.0 mm
19:02 4.8 °C -0.6 °C 1018.8 hPa NE 4.8 km/h 16.1 km/h 68 % 0.0 mm
19:07 4.7 °C -0.9 °C 1018.5 hPa NE 3.2 km/h 11.3 km/h 67 % 0.0 mm
19:12 4.7 °C -0.7 °C 1018.8 hPa SE 3.2 km/h 11.3 km/h 68 % 0.0 mm
19:17 4.6 °C -0.6 °C 1018.8 hPa Calm   11.3 km/h 69 % 0.0 mm
19:22 4.6 °C -0.6 °C 1018.8 hPa ENE 3.2 km/h 8.0 km/h 69 % 0.0 mm
19:27 4.6 °C -0.8 °C 1018.8 hPa ESE 4.8 km/h 9.7 km/h 68 % 0.0 mm
19:32 4.6 °C -0.8 °C 1018.8 hPa ENE 6.4 km/h 14.5 km/h 68 % 0.0 mm
19:37 4.7 °C -0.7 °C 1018.8 hPa ENE 9.7 km/h 14.5 km/h 68 % 0.0 mm
19:42 4.7 °C -0.7 °C 1019.2 hPa Calm   12.9 km/h 68 % 0.0 mm
19:52 4.5 °C -0.7 °C 1019.2 hPa NE 1.6 km/h 11.3 km/h 69 % 0.0 mm
19:57 4.5 °C -0.7 °C 1019.2 hPa ENE 3.2 km/h 9.7 km/h 69 % 0.0 mm
20:07 4.4 °C -0.4 °C 1019.5 hPa Calm   12.9 km/h 71 % 0.0 mm
20:12 4.4 °C 0.0 °C 1019.5 hPa Calm   12.9 km/h 73 % 0.0 mm
20:17 4.3 °C 0.3 °C 1019.5 hPa Calm   8.0 km/h 75 % 0.0 mm
20:22 4.2 °C 0.5 °C 1019.5 hPa North 1.6 km/h 8.0 km/h 77 % 0.0 mm
20:27 4.1 °C 0.6 °C 1019.9 hPa Calm   4.8 km/h 78 % 0.0 mm
20:32 3.9 °C 0.8 °C 1019.5 hPa Calm   4.8 km/h 80 % 0.0 mm
20:37 3.8 °C 1.2 °C 1019.9 hPa ENE 3.2 km/h 4.8 km/h 83 % 0.0 mm
20:42 3.5 °C 1.2 °C 1019.9 hPa Calm   11.3 km/h 85 % 0.0 mm
20:47 3.2 °C 1.1 °C 1019.9 hPa North 1.6 km/h 11.3 km/h 86 % 0.0 mm
20:52 3.1 °C 1.3 °C 1019.9 hPa Calm   11.3 km/h 88 % 0.0 mm
20:57 2.9 °C 1.3 °C 1019.9 hPa NNE 3.2 km/h 4.8 km/h 89 % 0.3 mm
21:02 2.7 °C 1.1 °C 1019.9 hPa NE 1.6 km/h 6.4 km/h 89 % 0.3 mm
21:12 2.6 °C 1.3 °C 1019.9 hPa NNE 4.8 km/h 6.4 km/h 91 % 0.5 mm
21:17 2.5 °C 1.2 °C 1020.2 hPa NNE 6.4 km/h 8.0 km/h 91 % 0.5 mm
21:22 2.4 °C 1.2 °C 1020.2 hPa NNE 3.2 km/h 12.9 km/h 92 % 0.5 mm
21:27 2.4 °C 1.2 °C 1020.2 hPa NNE 1.6 km/h 12.9 km/h 92 % 0.5 mm
21:32 2.4 °C 1.2 °C 1020.2 hPa Calm   6.4 km/h 92 % 0.8 mm
21:37 2.4 °C 1.4 °C 1020.2 hPa Calm   6.4 km/h 93 % 0.8 mm
21:42 2.4 °C 1.4 °C 1020.2 hPa NNE 3.2 km/h 4.8 km/h 93 % 0.8 mm
21:47 2.3 °C 1.3 °C 1020.2 hPa Calm   8.0 km/h 93 % 0.8 mm
21:52 2.3 °C 1.3 °C 1020.2 hPa Calm   8.0 km/h 93 % 0.5 mm
21:57 2.4 °C 1.4 °C 1020.2 hPa Calm   8.0 km/h 93 % 0.5 mm
22:02 2.4 °C 1.4 °C 1020.2 hPa Calm   6.4 km/h 93 % 0.5 mm
22:12 2.4 °C 1.5 °C 1020.2 hPa Calm   3.2 km/h 94 % 0.5 mm
22:17 2.4 °C 1.5 °C 1020.5 hPa Calm   3.2 km/h 94 % 0.3 mm
22:22 2.4 °C 1.5 °C 1020.5 hPa NNE 1.6 km/h 3.2 km/h 94 % 0.3 mm
22:27 2.4 °C 1.5 °C 1020.5 hPa Calm   3.2 km/h 94 % 0.0 mm
22:32 2.4 °C 1.5 °C 1020.5 hPa Calm   1.6 km/h 94 % 0.0 mm
22:37 2.4 °C 1.5 °C 1020.5 hPa Calm   1.6 km/h 94 % 0.0 mm
22:47 2.4 °C 1.5 °C 1020.5 hPa Calm   4.8 km/h 94 % 0.3 mm
22:52 2.4 °C 1.5 °C 1020.5 hPa Calm   4.8 km/h 94 % 0.3 mm
23:02 2.5 °C 1.6 °C 1020.5 hPa Calm   4.8 km/h 94 % 0.3 mm
23:07 2.5 °C 1.6 °C 1020.5 hPa Calm   4.8 km/h 94 % 0.3 mm
23:12 2.5 °C 1.6 °C 1020.5 hPa Calm   3.2 km/h 94 % 0.3 mm
23:17 2.5 °C 1.6 °C 1020.5 hPa Calm   3.2 km/h 94 % 0.3 mm
23:22 2.4 °C 1.5 °C 1020.5 hPa Calm   1.6 km/h 94 % 0.3 mm
23:27 2.4 °C 1.5 °C 1020.5 hPa Calm   1.6 km/h 94 % 0.3 mm
23:32 2.3 °C 1.4 °C 1020.5 hPa Calm   1.6 km/h 94 % 0.3 mm
23:37 2.3 °C 1.4 °C 1020.5 hPa Calm   1.6 km/h 94 % 0.3 mm
23:42 2.2 °C 1.3 °C 1020.5 hPa Calm   1.6 km/h 94 % 0.0 mm
23:47 2.2 °C 1.3 °C 1020.5 hPa NE 3.2 km/h 4.8 km/h 94 % 0.0 mm
23:52 2.2 °C 1.3 °C 1020.5 hPa Calm   4.8 km/h 94 % 0.0 mm
23:57 2.2 °C 1.3 °C 1020.9 hPa Calm   4.8 km/h 94 % 0.0 mm
Meteo18
Compliments of Weather Underground - 4 mb

Script developed by  Jim McMurry - jmcmurry@mwt.net Adapted for the template by  Wim van der Kuil - Leuven-Template.eu

You find our weather info also at:

European Weather Network

Weather Underground

Equipment we use:

Weather-station
Davis Vue

Weather-program
Meteohub

Weather-server
Raspberry PI 2 B+

Provider
1 and 1

Davis Vue

Meteohub

Raspberry PI 2 B+

1 and 1